Location: ???? ???? ?????
(31.2680°N, 31.7283°E)
Time: 03:54:02
(UTC+00:00)

Meteor 2-10 Rocket - Pass Details

Date: 13 July 2020
Orbit: 734 x 884 km, 81.2° (Epoch: 11 August)

Event Time Altitude Azimuth Distance (km) Brightness Sun altitude
Rises 18:00:16 0° 347° (NNW) 3,261 7.6 -12.1°
Reaches altitude 10° 18:02:36 10° 344° (NNW) 2,352 6.8 -12.5°
Maximum altitude 18:07:50 61° 265° (W) 918 4.1 -13.4°
Drops below altitude 10° 18:13:15 10° 186° (S) 2,438 5.8 -14.3°
Enters shadow 18:15:18 - 183° (S) 3,224 6.4 -14.7°
